• In India
  • List of Countries
  • For 7 days
  • Water Temperature
  • Satellite Maps
  • Weather Map
  • Weather Widgets
  • user-avatar
    Login

    Hourly Weather Zaluzhzhya

    Today, 20 September, Thursday

    Time Temperature Precipitation Wind Pressure Humidity
    00:00 +16°C° 0 mm 1 mps 732 mmHg 77%
    01:00 +16°C° 0 mm 1 mps 732 mmHg 78%
    02:00 +15°C° 0 mm 1 mps 732 mmHg 79%
    03:00 +15°C° 0 mm 1 mps 732 mmHg 80%
    04:00 +15°C° 0 mm 1 mps 731 mmHg 81%
    05:00 +14°C° 0 mm 0 mps 731 mmHg 82%
    06:00 +15°C° 0 mm 0 mps 732 mmHg 79%
    07:00 +18°C° 0 mm 1 mps 732 mmHg 76%
    08:00 +19°C° 0 mm 1 mps 732 mmHg 72%
    09:00 +20°C° 0 mm 1 mps 732 mmHg 67%
    10:00 +22°C° 0 mm 1 mps 732 mmHg 62%
    11:00 +24°C° 0 mm 1 mps 732 mmHg 57%
    12:00 +25°C° 0 mm 1 mps 732 mmHg 54%
    13:00 +25°C° 0 mm 1 mps 732 mmHg 51%
    14:00 +26°C° 0 mm 1 mps 732 mmHg 49%
    15:00 +26°C° 0 mm 1 mps 732 mmHg 51%
    16:00 +26°C° 0 mm 1 mps 731 mmHg 54%
    17:00 +25°C° 0 mm 1 mps 731 mmHg 57%
    18:00 +23°C° 0 mm 1 mps 731 mmHg 61%
    19:00 +21°C° 0 mm 1 mps 731 mmHg 65%
    20:00 +19°C° 0 mm 1 mps 731 mmHg 69%
    21:00 +19°C° 0 mm 1 mps 731 mmHg 70%
    22:00 +18°C° 0 mm 1 mps 731 mmHg 71%
    23:00 +18°C° 0 mm 1 mps 731 mmHg 72%

    Tomorrow, 21 September, Friday

    Time Temperature Precipitation Wind Pressure Humidity
    00:00 +18°C° 0 mm 1 mps 731 mmHg 73%
    01:00 +16°C° 0 mm 1 mps 731 mmHg 73%
    02:00 +16°C° 0 mm 1 mps 731 mmHg 73%
    03:00 +16°C° 0 mm 1 mps 730 mmHg 73%
    04:00 +15°C° 0 mm 1 mps 730 mmHg 73%
    05:00 +15°C° 0 mm 2 mps 730 mmHg 72%
    06:00 +16°C° 0 mm 2 mps 730 mmHg 70%
    07:00 +16°C° 0 mm 2 mps 730 mmHg 68%
    08:00 +17°C° 0 mm 2 mps 730 mmHg 66%
    09:00 +19°C° 0 mm 3 mps 730 mmHg 61%
    10:00 +21°C° 0 mm 3 mps 730 mmHg 56%
    11:00 +22°C° 0 mm 4 mps 730 mmHg 50%
    12:00 +23°C° 0 mm 4 mps 730 mmHg 49%
    13:00 +25°C° 0 mm 4 mps 730 mmHg 47%
    14:00 +26°C° 0 mm 4 mps 729 mmHg 46%
    15:00 +25°C° 0 mm 3 mps 729 mmHg 49%
    16:00 +25°C° 0 mm 3 mps 729 mmHg 53%
    17:00 +24°C° 0 mm 2 mps 728 mmHg 56%
    18:00 +23°C° 0 mm 2 mps 728 mmHg 58%
    19:00 +20°C° 0 mm 2 mps 728 mmHg 60%
    20:00 +18°C° 0 mm 2 mps 728 mmHg 61%
    21:00 +18°C° 0 mm 2 mps 728 mmHg 62%
    22:00 +17°C° 0 mm 2 mps 728 mmHg 63%
    23:00 +17°C° 0 mm 2 mps 728 mmHg 64%

    Day after tomorrow, 22 September, Saturday

    Time Temperature Precipitation Wind Pressure Humidity
    00:00 +16°C° 0 mm 2 mps 728 mmHg 65%
    01:00 +16°C° 0 mm 2 mps 728 mmHg 66%
    02:00 +16°C° 0 mm 2 mps 727 mmHg 67%
    03:00 +16°C° 0 mm 2 mps 727 mmHg 67%
    04:00 +16°C° 0 mm 2 mps 727 mmHg 66%
    05:00 +16°C° 0 mm 3 mps 727 mmHg 66%
    06:00 +16°C° 0 mm 3 mps 728 mmHg 65%
    07:00 +17°C° 0 mm 3 mps 728 mmHg 65%
    08:00 +18°C° 0 mm 3 mps 728 mmHg 64%
    09:00 +18°C° 0 mm 3 mps 728 mmHg 64%
    10:00 +19°C° 0 mm 4 mps 729 mmHg 65%
    11:00 +20°C° 0 mm 4 mps 729 mmHg 65%
    12:00 +20°C° 0 mm 5 mps 729 mmHg 67%
    13:00 +19°C° 0 mm 5 mps 729 mmHg 68%
    14:00 +19°C° 0 mm 5 mps 729 mmHg 69%
    15:00 +16°C° 0 mm 5 mps 729 mmHg 70%
    16:00 +15°C° 0 mm 5 mps 729 mmHg 71%
    17:00 +13°C° 0 mm 5 mps 729 mmHg 71%
    18:00 +12°C° 0.7 mm 5 mps 730 mmHg 76%
    19:00 +11°C° 0.7 mm 4 mps 730 mmHg 81%
    20:00 +10°C° 0.7 mm 4 mps 730 mmHg 85%
    21:00 +9°C° 1.8 mm 3 mps 730 mmHg 88%
    22:00 +9°C° 1.8 mm 3 mps 730 mmHg 90%
    23:00 +8°C° 1.8 mm 3 mps 730 mmHg 93%

    23 September, Sunday

    Time Temperature Precipitation Wind Pressure Humidity
    00:00 +8°C° 0.2 mm 3 mps 730 mmHg 93%
    01:00 +8°C° 0.2 mm 3 mps 730 mmHg 93%
    02:00 +7°C° 0.2 mm 3 mps 730 mmHg 93%
    03:00 +7°C° 0 mm 3 mps 730 mmHg 93%
    04:00 +7°C° 0 mm 3 mps 730 mmHg 92%
    05:00 +5°C° 0 mm 3 mps 730 mmHg 92%
    06:00 +7°C° 0 mm 3 mps 730 mmHg 89%
    07:00 +8°C° 0 mm 3 mps 730 mmHg 86%
    08:00 +8°C° 0 mm 4 mps 731 mmHg 83%
    09:00 +10°C° 0 mm 4 mps 731 mmHg 76%
    10:00 +12°C° 0 mm 4 mps 731 mmHg 68%
    11:00 +14°C° 0 mm 5 mps 731 mmHg 61%
    12:00 +14°C° 0 mm 5 mps 731 mmHg 57%
    13:00 +15°C° 0 mm 5 mps 730 mmHg 54%
    14:00 +16°C° 0 mm 5 mps 730 mmHg 50%
    15:00 +15°C° 0 mm 4 mps 730 mmHg 53%
    16:00 +16°C° 0 mm 2 mps 729 mmHg 56%
    17:00 +16°C° 0 mm 1 mps 729 mmHg 60%
    18:00 +15°C° 0 mm 2 mps 729 mmHg 61%
    19:00 +13°C° 0 mm 2 mps 729 mmHg 63%
    20:00 +12°C° 0 mm 2 mps 728 mmHg 65%
    21:00 +11°C° 0 mm 3 mps 728 mmHg 64%
    22:00 +11°C° 0 mm 4 mps 727 mmHg 63%
    23:00 +10°C° 0 mm 5 mps 726 mmHg 62%

    24 September, Monday

    Time Temperature Precipitation Wind Pressure Humidity
    00:00 +10°C° 0 mm 5 mps 725 mmHg 60%
    01:00 +10°C° 0 mm 6 mps 724 mmHg 58%
    02:00 +10°C° 0 mm 6 mps 723 mmHg 57%
    03:00 +10°C° 0 mm 6 mps 722 mmHg 57%
    04:00 +11°C° 0 mm 6 mps 720 mmHg 57%
    05:00 +11°C° 0 mm 6 mps 719 mmHg 57%
    06:00 +11°C° 0.1 mm 6 mps 718 mmHg 60%
    07:00 +11°C° 0.1 mm 6 mps 717 mmHg 63%
    08:00 +13°C° 0.1 mm 5 mps 716 mmHg 66%
    09:00 +14°C° 0.2 mm 6 mps 716 mmHg 68%
    10:00 +15°C° 0.2 mm 6 mps 716 mmHg 69%
    11:00 +16°C° 0.2 mm 6 mps 715 mmHg 70%
    12:00 +15°C° 0.3 mm 7 mps 715 mmHg 72%
    13:00 +15°C° 0.3 mm 7 mps 715 mmHg 75%
    14:00 +14°C° 0.3 mm 7 mps 715 mmHg 77%
    15:00 +12°C° 0.2 mm 8 mps 716 mmHg 76%
    16:00 +12°C° 0.2 mm 9 mps 717 mmHg 75%
    17:00 +11°C° 0.2 mm 10 mps 717 mmHg 74%
    18:00 +9°C° 0 mm 11 mps 718 mmHg 72%
    19:00 +8°C° 0 mm 11 mps 718 mmHg 71%
    20:00 +7°C° 0 mm 11 mps 718 mmHg 70%
    21:00 +7°C° 0 mm 11 mps 719 mmHg 68%
    22:00 +8°C° 0 mm 12 mps 719 mmHg 66%
    23:00 +8°C° 0 mm 12 mps 719 mmHg 64%

    25 September, Tuesday

    Time Temperature Precipitation Wind Pressure Humidity
    00:00 +7°C° 0 mm 12 mps 720 mmHg 66%
    01:00 +7°C° 0 mm 12 mps 720 mmHg 69%
    02:00 +7°C° 0 mm 12 mps 720 mmHg 71%
    03:00 +7°C° 0.1 mm 12 mps 721 mmHg 71%
    04:00 +7°C° 0.1 mm 11 mps 722 mmHg 71%
    05:00 +7°C° 0.1 mm 11 mps 723 mmHg 70%
    06:00 +6°C° 0 mm 11 mps 724 mmHg 69%
    07:00 +6°C° 0 mm 10 mps 725 mmHg 68%
    08:00 +5°C° 0 mm 10 mps 725 mmHg 67%
    09:00 +6°C° 0 mm 10 mps 726 mmHg 65%
    10:00 +6°C° 0 mm 9 mps 726 mmHg 63%
    11:00 +7°C° 0 mm 9 mps 727 mmHg 62%
    12:00 +7°C° 0.2 mm 9 mps 727 mmHg 60%
    13:00 +8°C° 0.2 mm 9 mps 727 mmHg 57%
    14:00 +8°C° 0.2 mm 9 mps 728 mmHg 55%
    15:00 +9°C° 0.2 mm 8 mps 728 mmHg 57%
    16:00 +8°C° 0.2 mm 7 mps 728 mmHg 60%
    17:00 +8°C° 0.2 mm 7 mps 728 mmHg 62%
    18:00 +7°C° 0 mm 6 mps 729 mmHg 65%
    19:00 +6°C° 0 mm 5 mps 729 mmHg 67%
    20:00 +5°C° 0 mm 5 mps 730 mmHg 70%
    21:00 +3°C° 0 mm 5 mps 730 mmHg 71%
    22:00 +3°C° 0 mm 5 mps 731 mmHg 73%
    23:00 +4°C° 0 mm 4 mps 731 mmHg 74%
    Show more